ETD642 OMAA-VOMM

Flight info

Callsign ETD642
Flight time 3h 37m
Altitude 33000
Route KANIP N318 TOLDA L555 TOTOX P574 ERVIS/N0463F350 P574 OPAMO DCT GUANI
Aircraft A321/M-SDE3FGHIRWY/LB1

Departure

Time 2026-04-22 23:38
Airport Zayed International Airport (OMAA)

Arrival

Time 2026-04-23 03:15
Airport Chennai International Airport (VOMM)
Time Latitude Longitude Altitude Speed Heading
2026-04-22 23:13 24.44724 54.64436 91 ft 0 kts 252°
2026-04-22 23:21 24.44728 54.64451 93 ft 4 kts 252°
2026-04-22 23:21 24.44736 54.64479 92 ft 4 kts 255°
2026-04-22 23:22 24.44744 54.64507 91 ft 4 kts 242°
2026-04-22 23:22 24.44760 54.64529 92 ft 4 kts 206°
2026-04-22 23:22 24.44777 54.64532 91 ft 0 kts 158°
2026-04-22 23:24 24.44766 54.64537 92 ft 4 kts 158°
2026-04-22 23:24 24.44729 54.64556 92 ft 8 kts 151°
2026-04-22 23:25 24.44675 54.64597 93 ft 11 kts 137°
2026-04-22 23:25 24.44626 54.64660 92 ft 11 kts 128°
2026-04-22 23:25 24.44576 54.64720 93 ft 11 kts 153°
2026-04-22 23:25 24.44510 54.64698 93 ft 10 kts 217°
2026-04-22 23:26 24.44452 54.64649 92 ft 11 kts 218°
2026-04-22 23:26 24.44394 54.64600 93 ft 11 kts 218°
2026-04-22 23:26 24.44336 54.64550 92 ft 11 kts 218°
2026-04-22 23:26 24.44276 54.64502 94 ft 11 kts 204°
2026-04-22 23:27 24.44216 54.64531 94 ft 10 kts 129°
2026-04-22 23:27 24.44171 54.64594 92 ft 11 kts 129°
2026-04-22 23:27 24.44125 54.64657 92 ft 11 kts 128°
2026-04-22 23:27 24.44079 54.64722 92 ft 11 kts 128°
2026-04-22 23:28 24.44033 54.64788 93 ft 11 kts 128°
2026-04-22 23:28 24.43983 54.64852 92 ft 11 kts 143°
2026-04-22 23:28 24.43918 54.64836 95 ft 10 kts 217°
2026-04-22 23:28 24.43855 54.64818 94 ft 10 kts 152°
2026-04-22 23:29 24.43809 54.64875 95 ft 10 kts 128°
2026-04-22 23:29 24.43765 54.64937 93 ft 10 kts 128°
2026-04-22 23:29 24.43721 54.65000 92 ft 10 kts 128°
2026-04-22 23:29 24.43674 54.65065 93 ft 12 kts 128°
2026-04-22 23:30 24.43622 54.65139 93 ft 13 kts 128°
2026-04-22 23:30 24.43560 54.65226 92 ft 15 kts 128°
2026-04-22 23:30 24.43491 54.65323 92 ft 17 kts 128°
2026-04-22 23:30 24.43419 54.65424 95 ft 17 kts 128°
2026-04-22 23:31 24.43347 54.65525 94 ft 17 kts 128°
2026-04-22 23:31 24.43275 54.65625 92 ft 17 kts 128°
2026-04-22 23:31 24.43203 54.65727 94 ft 17 kts 128°
2026-04-22 23:31 24.43133 54.65828 94 ft 17 kts 128°
2026-04-22 23:32 24.43063 54.65928 94 ft 17 kts 128°
2026-04-22 23:32 24.42990 54.66029 92 ft 17 kts 128°
2026-04-22 23:32 24.42919 54.66130 93 ft 16 kts 127°
2026-04-22 23:32 24.42850 54.66229 94 ft 16 kts 128°
2026-04-22 23:33 24.42780 54.66325 93 ft 16 kts 127°
2026-04-22 23:33 24.42712 54.66422 92 ft 16 kts 128°
2026-04-22 23:33 24.42643 54.66518 93 ft 16 kts 128°
2026-04-22 23:33 24.42575 54.66614 93 ft 16 kts 128°
2026-04-22 23:34 24.42507 54.66711 92 ft 16 kts 128°
2026-04-22 23:34 24.42438 54.66807 95 ft 16 kts 128°
2026-04-22 23:34 24.42375 54.66866 93 ft 8 kts 168°
2026-04-22 23:34 24.42368 54.66864 94 ft 0 kts 204°
2026-04-22 23:35 24.42364 54.66862 92 ft 2 kts 207°
2026-04-22 23:36 24.42340 54.66845 92 ft 7 kts 215°
2026-04-22 23:36 24.42290 54.66804 91 ft 11 kts 217°
2026-04-22 23:36 24.42219 54.66745 90 ft 14 kts 218°
2026-04-22 23:36 24.42187 54.66708 91 ft 5 kts 250°
2026-04-22 23:37 24.42197 54.66679 92 ft 4 kts 309°
2026-04-22 23:37 24.42201 54.66674 91 ft 2 kts 308°
2026-04-22 23:37 24.42310 54.66525 91 ft 57 kts 308°
2026-04-22 23:37 24.42693 54.65982 96 ft 123 kts 308°
2026-04-22 23:38 24.43346 54.65062 95 ft 180 kts 308°
2026-04-22 23:38 24.44180 54.63890 474 ft 201 kts 308°
2026-04-22 23:38 24.45036 54.62694 1376 ft 196 kts 310°
2026-04-22 23:38 24.45878 54.61516 2060 ft 196 kts 309°
2026-04-22 23:39 24.46743 54.60295 2251 ft 210 kts 308°
2026-04-22 23:39 24.47659 54.59002 2384 ft 224 kts 308°
2026-04-22 23:39 24.48641 54.57615 2502 ft 240 kts 308°
2026-04-22 23:39 24.49697 54.56121 2708 ft 252 kts 307°
2026-04-22 23:40 24.50779 54.54591 3195 ft 254 kts 307°
2026-04-22 23:40 24.51851 54.53073 3711 ft 254 kts 306°
2026-04-22 23:40 24.52931 54.51544 4263 ft 253 kts 306°
2026-04-22 23:40 24.54014 54.50013 4777 ft 253 kts 305°
2026-04-22 23:41 24.55099 54.48480 5279 ft 254 kts 304°
2026-04-22 23:41 24.56189 54.46938 5757 ft 256 kts 304°
2026-04-22 23:41 24.57286 54.45386 6223 ft 258 kts 303°
2026-04-22 23:41 24.58392 54.43819 6667 ft 261 kts 304°
2026-04-22 23:42 24.59764 54.42485 7085 ft 270 kts 330°
2026-04-22 23:42 24.61603 54.41989 7504 ft 279 kts
2026-04-22 23:42 24.63481 54.42547 7913 ft 285 kts 29°
2026-04-22 23:42 24.65195 54.43665 8359 ft 287 kts 31°
2026-04-22 23:43 24.66908 54.44812 8839 ft 289 kts 31°
2026-04-22 23:43 24.68627 54.45967 9324 ft 291 kts 31°
2026-04-22 23:43 24.70367 54.47132 9788 ft 293 kts 31°
2026-04-22 23:43 24.72089 54.48331 10236 ft 294 kts 38°
2026-04-22 23:44 24.73528 54.49918 10688 ft 294 kts 56°
2026-04-22 23:44 24.74516 54.51871 11122 ft 293 kts 69°
2026-04-22 23:44 24.75320 54.53913 11584 ft 295 kts 68°
2026-04-22 23:44 24.76147 54.55989 12066 ft 296 kts 67°
2026-04-22 23:45 24.76982 54.58067 12521 ft 299 kts 67°
2026-04-22 23:45 24.77847 54.60214 12648 ft 314 kts 67°
2026-04-22 23:45 24.78744 54.62444 12977 ft 322 kts 67°
2026-04-22 23:45 24.79534 54.64753 13421 ft 324 kts 78°
2026-04-22 23:46 24.79813 54.67203 13854 ft 324 kts 92°
2026-04-22 23:46 24.79540 54.69669 14266 ft 325 kts 107°
2026-04-22 23:46 24.78782 54.72020 14666 ft 327 kts 114°
2026-04-22 23:46 24.77943 54.74355 15082 ft 330 kts 113°
2026-04-22 23:47 24.77084 54.76702 15493 ft 332 kts 118°
2026-04-22 23:47 24.75755 54.78764 15874 ft 330 kts 140°
2026-04-22 23:47 24.73849 54.80123 16249 ft 328 kts 162°
2026-04-22 23:47 24.71613 54.80624 16399 ft 333 kts 184°
2026-04-22 23:48 24.69330 54.80160 16526 ft 339 kts 201°
2026-04-22 23:48 24.67059 54.79310 16670 ft 351 kts 201°
2026-04-22 23:48 24.64671 54.78542 16776 ft 365 kts 192°
2026-04-22 23:48 24.62087 54.78385 16909 ft 381 kts 177°
2026-04-22 23:49 24.59451 54.79000 17042 ft 396 kts 162°
2026-04-22 23:49 24.56971 54.80410 17171 ft 411 kts 146°
2026-04-22 23:49 24.54790 54.82527 17330 ft 422 kts 137°
2026-04-22 23:49 24.52695 54.84752 17678 ft 427 kts 137°
2026-04-22 23:50 24.50547 54.87029 18085 ft 431 kts 137°
2026-04-22 23:50 24.48383 54.89316 18437 ft 433 kts 138°
2026-04-22 23:50 24.46200 54.91619 18812 ft 435 kts 138°
2026-04-22 23:50 24.43986 54.93950 19188 ft 437 kts 138°
2026-04-22 23:51 24.41815 54.96231 19549 ft 439 kts 138°
2026-04-22 23:51 24.39602 54.98558 19915 ft 440 kts 138°
2026-04-22 23:51 24.37385 55.00889 20256 ft 442 kts 138°
2026-04-22 23:51 24.35158 55.03228 20620 ft 443 kts 138°
2026-04-22 23:52 24.33004 55.05652 20947 ft 447 kts 131°
2026-04-22 23:52 24.31177 55.08423 21254 ft 451 kts 122°
2026-04-22 23:52 24.29632 55.11433 21563 ft 453 kts 121°
2026-04-22 23:52 24.28091 55.14458 21877 ft 455 kts 121°
2026-04-22 23:53 24.26539 55.17489 22183 ft 457 kts 121°
2026-04-22 23:53 24.24975 55.20532 22480 ft 459 kts 121°
2026-04-22 23:53 24.23397 55.23596 22774 ft 461 kts 121°
2026-04-22 23:53 24.21816 55.26658 23065 ft 463 kts 121°
2026-04-22 23:54 24.20225 55.29741 23318 ft 466 kts 121°
2026-04-22 23:54 24.18629 55.32837 23532 ft 469 kts 121°
2026-04-22 23:54 24.17174 55.36047 23747 ft 473 kts 114°
2026-04-22 23:54 24.15898 55.39374 23981 ft 475 kts 114°
2026-04-22 23:55 24.14615 55.42714 24213 ft 477 kts 114°
2026-04-22 23:55 24.13325 55.46068 24446 ft 479 kts 114°
2026-04-22 23:55 24.12029 55.49434 24678 ft 481 kts 114°
2026-04-22 23:55 24.10728 55.52803 24904 ft 483 kts 114°
2026-04-22 23:56 24.09413 55.56202 25120 ft 485 kts 114°
2026-04-22 23:56 24.08101 55.59599 25346 ft 487 kts 114°
2026-04-22 23:56 24.06783 55.63017 25566 ft 488 kts 114°
2026-04-22 23:56 24.05412 55.66432 25798 ft 490 kts 116°
2026-04-22 23:57 24.03922 55.69789 26031 ft 491 kts 118°
2026-04-22 23:57 24.02336 55.73103 26258 ft 493 kts 119°
2026-04-22 23:57 24.00693 55.76405 26478 ft 495 kts 120°
2026-04-22 23:57 23.99028 55.79718 26713 ft 497 kts 120°
2026-04-22 23:58 23.97378 55.83041 27056 ft 497 kts 119°
2026-04-22 23:58 23.95755 55.86373 27368 ft 497 kts 118°
2026-04-22 23:58 23.94175 55.89675 27695 ft 496 kts 118°
2026-04-22 23:58 23.92587 55.93023 28003 ft 496 kts 118°
2026-04-22 23:59 23.90995 55.96385 28315 ft 496 kts 118°
2026-04-22 23:59 23.89408 55.99732 28636 ft 496 kts 118°
2026-04-22 23:59 23.87815 56.03079 28934 ft 496 kts 118°
2026-04-22 23:59 23.86759 56.05292 29132 ft 496 kts 118°
2026-04-23 00:00 23.83013 56.13095 29843 ft 495 kts 118°
2026-04-23 00:00 23.81947 56.15305 29996 ft 495 kts 118°
2026-04-23 00:00 23.80342 56.18631 30211 ft 496 kts 118°
2026-04-23 00:01 23.78737 56.21967 30442 ft 497 kts 118°
2026-04-23 00:01 23.76603 56.26405 30702 ft 498 kts 118°
2026-04-23 00:01 23.75534 56.28625 30839 ft 498 kts 118°
2026-04-23 00:01 23.73922 56.31977 31059 ft 499 kts 117°
2026-04-23 00:02 23.72309 56.35329 31266 ft 499 kts 117°
2026-04-23 00:02 23.70692 56.38687 31462 ft 500 kts 118°
2026-04-23 00:02 23.69066 56.42056 31654 ft 501 kts 118°
2026-04-23 00:02 23.67438 56.45420 31820 ft 502 kts 118°
2026-04-23 00:03 23.65804 56.48789 32001 ft 503 kts 118°
2026-04-23 00:03 23.64169 56.52166 32177 ft 504 kts 118°
2026-04-23 00:03 23.62532 56.55549 32369 ft 505 kts 118°
2026-04-23 00:03 23.60900 56.58929 32569 ft 505 kts 118°
2026-04-23 00:04 23.59261 56.62319 32802 ft 504 kts 118°
2026-04-23 00:04 23.55966 56.69108 32879 ft 507 kts 118°
2026-04-23 00:05 23.52667 56.75892 32876 ft 507 kts 118°
2026-04-23 00:05 23.49352 56.82693 32892 ft 509 kts 118°
2026-04-23 00:06 23.46033 56.89494 32890 ft 508 kts 118°
2026-04-23 00:06 23.42724 56.96282 32896 ft 507 kts 118°
2026-04-23 00:07 23.39417 57.03062 32902 ft 507 kts 118°
2026-04-23 00:07 23.36122 57.09868 32915 ft 510 kts 117°
2026-04-23 00:08 23.32954 57.16842 32889 ft 518 kts 115°
2026-04-23 00:08 23.29811 57.23939 32918 ft 521 kts 115°
2026-04-23 00:09 23.26629 57.31028 32927 ft 521 kts 116°
2026-04-23 00:09 23.23405 57.38095 32893 ft 521 kts 116°
2026-04-23 00:10 23.20180 57.45145 32936 ft 522 kts 116°
2026-04-23 00:10 23.16948 57.52234 32932 ft 523 kts 116°
2026-04-23 00:11 23.13722 57.59300 32929 ft 523 kts 116°
2026-04-23 00:11 23.10486 57.66385 32939 ft 523 kts 115°
2026-04-23 00:12 23.07247 57.73452 32927 ft 523 kts 115°
2026-04-23 00:12 23.04005 57.80512 32934 ft 522 kts 115°
2026-04-23 00:13 23.00758 57.87574 32920 ft 523 kts 115°
2026-04-23 00:13 22.97523 57.94593 32929 ft 522 kts 115°
2026-04-23 00:14 22.94276 58.01640 32921 ft 522 kts 115°
2026-04-23 00:14 22.91032 58.08679 32924 ft 522 kts 115°
2026-04-23 00:15 22.87782 58.15713 32921 ft 521 kts 115°
2026-04-23 00:15 22.84528 58.22740 32931 ft 521 kts 115°
2026-04-23 00:16 22.81276 58.29744 32929 ft 520 kts 115°
2026-04-23 00:16 22.78018 58.36740 32910 ft 519 kts 115°
2026-04-23 00:17 22.74771 58.43725 32914 ft 518 kts 115°
2026-04-23 00:17 22.71535 58.50694 32920 ft 517 kts 115°
2026-04-23 00:18 22.68299 58.57647 32921 ft 516 kts 115°
2026-04-23 00:18 22.65997 58.64952 32920 ft 511 kts 100°
2026-04-23 00:19 22.64465 58.72456 32913 ft 511 kts 100°
2026-04-23 00:19 22.62904 58.79958 32915 ft 511 kts 100°
2026-04-23 00:20 22.61333 58.87461 32898 ft 511 kts 100°
2026-04-23 00:20 22.59766 58.94951 32904 ft 511 kts 100°
2026-04-23 00:21 22.58197 59.02453 32908 ft 511 kts 100°
2026-04-23 00:21 22.56635 59.09905 32906 ft 511 kts 101°
2026-04-23 00:22 22.55060 59.17411 32895 ft 511 kts 101°
2026-04-23 00:22 22.53482 59.24902 32894 ft 510 kts 101°
2026-04-23 00:23 22.51900 59.32389 32880 ft 510 kts 101°
2026-04-23 00:23 22.50321 59.39863 32854 ft 510 kts 101°
2026-04-23 00:24 22.48735 59.47352 32852 ft 510 kts 101°
2026-04-23 00:24 22.47146 59.54842 32834 ft 511 kts 101°
2026-04-23 00:25 22.45549 59.62328 32827 ft 511 kts 102°
2026-04-23 00:25 22.43953 59.69805 32827 ft 511 kts 102°
2026-04-23 00:26 22.42349 59.77288 32821 ft 511 kts 102°
2026-04-23 00:26 22.40753 59.84729 32826 ft 511 kts 102°
2026-04-23 00:27 22.39138 59.92206 32832 ft 511 kts 102°
2026-04-23 00:27 22.37518 59.99676 32831 ft 510 kts 102°
2026-04-23 00:28 22.35905 60.07141 32837 ft 510 kts 102°
2026-04-23 00:28 22.34286 60.14607 32838 ft 510 kts 102°
2026-04-23 00:29 22.32674 60.22054 32848 ft 509 kts 103°
2026-04-23 00:29 22.31056 60.29507 32843 ft 509 kts 103°
2026-04-23 00:30 22.29424 60.36939 32847 ft 508 kts 103°
2026-04-23 00:30 22.27794 60.44370 32850 ft 508 kts 103°
2026-04-23 00:31 22.26166 60.51790 32854 ft 508 kts 103°
2026-04-23 00:31 22.24531 60.59202 32853 ft 507 kts 103°
2026-04-23 00:32 22.22897 60.66617 32850 ft 507 kts 103°
2026-04-23 00:32 22.21269 60.73963 32849 ft 507 kts 103°
2026-04-23 00:33 22.19626 60.81353 32854 ft 506 kts 104°
2026-04-23 00:33 22.17987 60.88736 32855 ft 505 kts 103°
2026-04-23 00:34 22.16353 60.96107 32857 ft 505 kts 103°
2026-04-23 00:34 22.14714 61.03473 32856 ft 504 kts 103°
2026-04-23 00:35 22.13075 61.10823 32863 ft 504 kts 104°
2026-04-23 00:35 22.11432 61.18178 32865 ft 503 kts 104°
2026-04-23 00:36 22.09785 61.25507 32864 ft 503 kts 104°
2026-04-23 00:36 22.08131 61.32828 32862 ft 503 kts 104°
2026-04-23 00:37 22.06475 61.40138 32868 ft 502 kts 104°
2026-04-23 00:37 22.04818 61.47455 32871 ft 502 kts 104°
2026-04-23 00:38 22.03174 61.54712 32867 ft 501 kts 104°
2026-04-23 00:38 22.01509 61.62049 32863 ft 501 kts 104°
2026-04-23 00:39 21.99849 61.69347 32863 ft 501 kts 104°
2026-04-23 00:39 21.98198 61.76593 32872 ft 501 kts 104°
2026-04-23 00:40 21.96538 61.83881 32871 ft 501 kts 104°
2026-04-23 00:40 21.94866 61.91168 32871 ft 501 kts 104°
2026-04-23 00:41 21.93188 61.98457 32873 ft 501 kts 104°
2026-04-23 00:41 21.91515 62.05733 32878 ft 500 kts 104°
2026-04-23 00:42 21.89836 62.13003 32876 ft 500 kts 104°
2026-04-23 00:42 21.88438 62.19062 32878 ft 500 kts 104°
2026-04-23 00:43 21.86756 62.26325 32875 ft 500 kts 104°
2026-04-23 00:43 21.85072 62.33584 32875 ft 500 kts 104°
2026-04-23 00:44 21.82702 62.40570 32879 ft 498 kts 118°
2026-04-23 00:44 21.79512 62.47214 32876 ft 499 kts 117°
2026-04-23 00:45 21.76361 62.53854 32881 ft 499 kts 117°
2026-04-23 00:45 21.73192 62.60498 32879 ft 498 kts 117°
2026-04-23 00:46 21.70017 62.67121 32885 ft 498 kts 118°
2026-04-23 00:46 21.66841 62.73738 32883 ft 498 kts 118°
2026-04-23 00:47 21.63663 62.80353 32879 ft 498 kts 117°
2026-04-23 00:47 21.60481 62.86973 32889 ft 498 kts 118°
2026-04-23 00:48 21.57305 62.93573 32887 ft 497 kts 118°
2026-04-23 00:48 21.54119 63.00158 32889 ft 496 kts 118°
2026-04-23 00:49 21.50948 63.06740 32891 ft 496 kts 118°
2026-04-23 00:49 21.47769 63.13322 32891 ft 496 kts 118°
2026-04-23 00:50 21.44589 63.19889 32893 ft 495 kts 118°
2026-04-23 00:50 21.41413 63.26445 32887 ft 495 kts 118°
2026-04-23 00:51 21.38241 63.32986 32888 ft 494 kts 118°
2026-04-23 00:51 21.35070 63.39536 32807 ft 493 kts 118°
2026-04-23 00:52 21.31900 63.46061 32872 ft 494 kts 118°
2026-04-23 00:52 21.28719 63.52598 32883 ft 494 kts 118°
2026-04-23 00:53 21.25540 63.59127 32887 ft 494 kts 118°
2026-04-23 00:53 21.22361 63.65653 32889 ft 494 kts 118°
2026-04-23 00:54 21.19168 63.72178 32886 ft 494 kts 118°
2026-04-23 00:54 21.15987 63.78651 32890 ft 494 kts 118°
2026-04-23 00:55 21.12797 63.85174 32890 ft 494 kts 117°
2026-04-23 00:55 21.09608 63.91683 32890 ft 494 kts 118°
2026-04-23 00:56 21.06411 63.98186 32889 ft 494 kts 118°
2026-04-23 00:56 21.03207 64.04706 32892 ft 494 kts 118°
2026-04-23 00:57 21.00005 64.11213 32891 ft 494 kts 118°
2026-04-23 00:57 20.96804 64.17719 32892 ft 494 kts 118°
2026-04-23 00:58 20.93606 64.24218 32893 ft 494 kts 118°
2026-04-23 00:58 20.90403 64.30711 32894 ft 494 kts 118°
2026-04-23 00:59 20.87186 64.37198 32898 ft 494 kts 118°
2026-04-23 00:59 20.83972 64.43688 32897 ft 493 kts 118°
2026-04-23 01:00 20.80785 64.50137 32897 ft 493 kts 118°
2026-04-23 01:00 20.77576 64.56606 32896 ft 493 kts 118°
2026-04-23 01:01 20.74351 64.63086 32894 ft 493 kts 118°
2026-04-23 01:01 20.71135 64.69555 32897 ft 493 kts 118°
2026-04-23 01:02 20.67921 64.76024 32897 ft 493 kts 118°
2026-04-23 01:02 20.64702 64.82488 32897 ft 493 kts 118°
2026-04-23 01:03 20.61470 64.88942 32896 ft 493 kts 118°
2026-04-23 01:03 20.58237 64.95394 32896 ft 493 kts 118°
2026-04-23 01:04 20.55013 65.01859 32898 ft 493 kts 118°
2026-04-23 01:04 20.50249 65.11568 32894 ft 493 kts 118°
2026-04-23 01:05 20.47081 65.18059 32897 ft 493 kts 118°
2026-04-23 01:05 20.43901 65.24533 32897 ft 493 kts 118°
2026-04-23 01:06 20.40721 65.30999 32904 ft 493 kts 118°
2026-04-23 01:06 20.37527 65.37467 32903 ft 492 kts 118°
2026-04-23 01:07 20.34338 65.43930 32907 ft 492 kts 118°
2026-04-23 01:07 20.31148 65.50383 32903 ft 492 kts 118°
2026-04-23 01:08 20.27965 65.56830 32902 ft 491 kts 118°
2026-04-23 01:08 20.24784 65.63273 32900 ft 491 kts 118°
2026-04-23 01:09 20.21596 65.69708 32899 ft 491 kts 118°
2026-04-23 01:09 20.18401 65.76134 32896 ft 491 kts 118°
2026-04-23 01:10 20.15204 65.82564 32899 ft 491 kts 118°
2026-04-23 01:10 20.12019 65.88989 32900 ft 491 kts 118°
2026-04-23 01:11 20.08821 65.95405 32903 ft 491 kts 119°
2026-04-23 01:11 20.05623 66.01816 32894 ft 490 kts 118°
2026-04-23 01:12 20.02428 66.08223 32905 ft 490 kts 118°
2026-04-23 01:12 19.99224 66.14621 32899 ft 490 kts 118°
2026-04-23 01:13 19.96024 66.21017 32901 ft 490 kts 118°
2026-04-23 01:13 19.92825 66.27411 32908 ft 490 kts 119°
2026-04-23 01:14 19.89643 66.33759 32904 ft 489 kts 119°
2026-04-23 01:14 19.86439 66.40156 32899 ft 489 kts 119°
2026-04-23 01:15 19.83238 66.46534 32901 ft 489 kts 119°
2026-04-23 01:15 19.80033 66.52908 32900 ft 489 kts 119°
2026-04-23 01:16 19.76832 66.59268 32897 ft 489 kts 119°
2026-04-23 01:16 19.73625 66.65632 32901 ft 488 kts 119°
2026-04-23 01:17 19.70417 66.71980 32909 ft 488 kts 119°
2026-04-23 01:17 19.67201 66.78325 32903 ft 488 kts 119°
2026-04-23 01:18 19.64540 66.83592 32904 ft 487 kts 119°
2026-04-23 01:18 19.61336 66.89937 32902 ft 487 kts 119°
2026-04-23 01:19 19.58133 66.96269 32900 ft 487 kts 119°
2026-04-23 01:19 19.54928 67.02601 32904 ft 487 kts 119°
2026-04-23 01:20 19.51700 67.08967 32903 ft 487 kts 120°
2026-04-23 01:20 19.48503 67.15240 32900 ft 487 kts 119°
2026-04-23 01:21 19.45279 67.21550 32901 ft 487 kts 119°
2026-04-23 01:21 19.42053 67.27877 32910 ft 486 kts 118°
2026-04-23 01:22 19.38847 67.34180 32905 ft 486 kts 119°
2026-04-23 01:22 19.35635 67.40483 32903 ft 486 kts 119°
2026-04-23 01:23 19.32411 67.46773 32899 ft 486 kts 119°
2026-04-23 01:23 19.29190 67.53064 32902 ft 485 kts 118°
2026-04-23 01:24 19.25990 67.59322 32909 ft 485 kts 118°
2026-04-23 01:24 19.22783 67.65594 32903 ft 484 kts 118°
2026-04-23 01:25 19.19570 67.71860 32901 ft 484 kts 118°
2026-04-23 01:25 19.16354 67.78107 32905 ft 484 kts 118°
2026-04-23 01:26 19.13145 67.84360 32896 ft 483 kts 118°
2026-04-23 01:26 19.09934 67.90592 32902 ft 483 kts 118°
2026-04-23 01:27 19.06716 67.96834 32894 ft 483 kts 118°
2026-04-23 01:27 19.03503 68.03092 32893 ft 484 kts 118°
2026-04-23 01:28 19.00335 68.09379 32897 ft 484 kts 117°
2026-04-23 01:28 18.97186 68.15668 32897 ft 484 kts 118°
2026-04-23 01:29 18.94023 68.21951 32892 ft 484 kts 117°
2026-04-23 01:29 18.90845 68.28237 32891 ft 485 kts 117°
2026-04-23 01:30 18.87666 68.34517 32891 ft 485 kts 117°
2026-04-23 01:30 18.84483 68.40806 32890 ft 485 kts 117°
2026-04-23 01:31 18.81323 68.47065 32893 ft 486 kts 118°
2026-04-23 01:31 18.78141 68.53354 32892 ft 486 kts 117°
2026-04-23 01:32 18.74944 68.59647 32890 ft 487 kts 117°
2026-04-23 01:32 18.71739 68.65946 32890 ft 487 kts 117°
2026-04-23 01:33 18.68534 68.72233 32894 ft 487 kts 117°
2026-04-23 01:33 18.65322 68.78536 32892 ft 487 kts 117°
2026-04-23 01:34 18.62108 68.84835 32889 ft 487 kts 118°
2026-04-23 01:34 18.58899 68.91131 32892 ft 487 kts 117°
2026-04-23 01:35 18.55681 68.97435 32887 ft 487 kts 117°
2026-04-23 01:35 18.52470 69.03713 32896 ft 487 kts 117°
2026-04-23 01:36 18.49244 69.10010 32889 ft 488 kts 118°
2026-04-23 01:36 18.46049 69.16252 32898 ft 487 kts 117°
2026-04-23 01:37 18.42832 69.22537 32898 ft 487 kts 117°
2026-04-23 01:37 18.39604 69.28818 32898 ft 488 kts 117°
2026-04-23 01:38 18.36477 69.35153 32894 ft 487 kts 115°
2026-04-23 01:38 18.33561 69.41595 32893 ft 487 kts 114°
2026-04-23 01:39 18.30668 69.48054 32881 ft 487 kts 115°
2026-04-23 01:39 18.27714 69.54477 32883 ft 488 kts 116°
2026-04-23 01:40 18.24727 69.60887 32891 ft 488 kts 115°
2026-04-23 01:40 18.21743 69.67296 32886 ft 488 kts 116°
2026-04-23 01:41 18.18760 69.73716 32889 ft 489 kts 115°
2026-04-23 01:41 18.15773 69.80143 32898 ft 488 kts 116°
2026-04-23 01:42 18.12797 69.86566 32887 ft 489 kts 116°
2026-04-23 01:42 18.09811 69.92993 32887 ft 489 kts 116°
2026-04-23 01:43 18.06815 69.99410 32888 ft 489 kts 116°
2026-04-23 01:43 18.03822 70.05829 32875 ft 490 kts 116°
2026-04-23 01:44 18.00823 70.12264 32877 ft 491 kts 116°
2026-04-23 01:44 17.97808 70.18704 32872 ft 492 kts 116°
2026-04-23 01:45 17.94794 70.25156 32872 ft 492 kts 117°
2026-04-23 01:45 17.91773 70.31605 32877 ft 493 kts 117°
2026-04-23 01:46 17.88739 70.38081 32882 ft 493 kts 117°
2026-04-23 01:46 17.85721 70.44508 32891 ft 493 kts 117°
2026-04-23 01:47 17.82685 70.50969 32889 ft 494 kts 116°
2026-04-23 01:47 17.79649 70.57432 32887 ft 494 kts 118°
2026-04-23 01:48 17.76585 70.63932 32888 ft 494 kts 117°
2026-04-23 01:48 17.73556 70.70343 32884 ft 494 kts 117°
2026-04-23 01:49 17.70505 70.76796 32884 ft 494 kts 117°
2026-04-23 01:49 17.67449 70.83245 32893 ft 494 kts 117°
2026-04-23 01:50 17.64395 70.89684 32889 ft 494 kts 118°
2026-04-23 01:50 17.61346 70.96140 32882 ft 494 kts 118°
2026-04-23 01:51 17.58297 71.02588 32878 ft 493 kts 118°
2026-04-23 01:51 17.55234 71.09034 32883 ft 493 kts 118°
2026-04-23 01:52 17.52170 71.15468 32887 ft 493 kts 118°
2026-04-23 01:52 17.49109 71.21905 32870 ft 494 kts 118°
2026-04-23 01:53 17.46041 71.28351 32886 ft 494 kts 118°
2026-04-23 01:53 17.42974 71.34793 32871 ft 494 kts 118°
2026-04-23 01:54 17.39904 71.41233 32882 ft 494 kts 118°
2026-04-23 01:54 17.36822 71.47667 32884 ft 494 kts 118°
2026-04-23 01:55 17.33737 71.54098 32883 ft 494 kts 118°
2026-04-23 01:55 17.30683 71.60492 32885 ft 495 kts 119°
2026-04-23 01:56 17.27599 71.66939 32880 ft 495 kts 119°
2026-04-23 01:56 17.24509 71.73375 32881 ft 495 kts 119°
2026-04-23 01:57 17.21414 71.79807 32875 ft 495 kts 120°
2026-04-23 01:57 17.18321 71.86249 32876 ft 495 kts 120°
2026-04-23 01:58 17.15744 71.91605 32870 ft 495 kts 120°
2026-04-23 01:58 17.12641 71.98044 32868 ft 495 kts 120°
2026-04-23 01:59 17.09023 72.05559 32869 ft 495 kts 120°
2026-04-23 01:59 17.06482 72.10917 32869 ft 496 kts 120°
2026-04-23 02:00 17.03452 72.17398 32871 ft 496 kts 120°
2026-04-23 02:00 17.00423 72.23876 32874 ft 496 kts 120°
2026-04-23 02:01 16.97384 72.30348 32869 ft 496 kts 120°
2026-04-23 02:01 16.94332 72.36816 32861 ft 496 kts 121°
2026-04-23 02:02 16.91277 72.43285 32864 ft 497 kts 121°
2026-04-23 02:02 16.88221 72.49755 32869 ft 497 kts 121°
2026-04-23 02:03 16.85162 72.56230 32871 ft 497 kts 121°
2026-04-23 02:03 16.82109 72.62695 32859 ft 496 kts 122°
2026-04-23 02:04 16.79076 72.69111 32860 ft 496 kts 122°
2026-04-23 02:04 16.75997 72.75596 32860 ft 495 kts 122°
2026-04-23 02:05 16.72958 72.81994 32857 ft 495 kts 122°
2026-04-23 02:05 16.69903 72.88437 32857 ft 495 kts 122°
2026-04-23 02:06 16.66842 72.94875 32846 ft 495 kts 122°
2026-04-23 02:06 16.63783 73.01303 32862 ft 494 kts 123°
2026-04-23 02:07 16.60727 73.07722 32860 ft 494 kts 123°
2026-04-23 02:07 16.57661 73.14115 32857 ft 493 kts 123°
2026-04-23 02:08 16.54517 73.20467 32856 ft 492 kts 124°
2026-04-23 02:08 16.51350 73.26800 32858 ft 492 kts 124°
2026-04-23 02:09 16.48204 73.33135 32854 ft 492 kts 124°
2026-04-23 02:09 16.45070 73.39476 32859 ft 492 kts 124°
2026-04-23 02:10 16.41930 73.45815 32860 ft 492 kts 124°
2026-04-23 02:10 16.38779 73.52145 32872 ft 492 kts 124°
2026-04-23 02:11 16.35635 73.58474 32863 ft 492 kts 124°
2026-04-23 02:11 16.32560 73.64859 32867 ft 493 kts 123°
2026-04-23 02:12 16.29518 73.71265 32878 ft 493 kts 124°
2026-04-23 02:12 16.26473 73.77614 32882 ft 493 kts 124°
2026-04-23 02:13 16.23382 73.84001 32901 ft 493 kts 124°
2026-04-23 02:13 16.20284 73.90375 32903 ft 494 kts 124°
2026-04-23 02:14 16.17201 73.96763 32919 ft 494 kts 124°
2026-04-23 02:14 16.14129 74.03165 32906 ft 494 kts 124°
2026-04-23 02:15 16.09515 74.12749 32919 ft 494 kts 124°
2026-04-23 02:16 16.06432 74.19136 32929 ft 494 kts 124°
2026-04-23 02:16 16.03355 74.25517 32942 ft 494 kts 124°
2026-04-23 02:17 16.00267 74.31904 32957 ft 494 kts 124°
2026-04-23 02:17 15.97170 74.38290 32967 ft 494 kts 124°
2026-04-23 02:18 15.94071 74.44668 32991 ft 495 kts 124°
2026-04-23 02:18 15.90973 74.51061 33017 ft 495 kts 124°
2026-04-23 02:19 15.87877 74.57449 33025 ft 495 kts 124°
2026-04-23 02:19 15.84771 74.63828 33026 ft 494 kts 125°
2026-04-23 02:20 15.81557 74.70122 33027 ft 493 kts 126°
2026-04-23 02:20 15.78270 74.76379 33003 ft 493 kts 126°
2026-04-23 02:21 15.75018 74.82598 32987 ft 494 kts 126°
2026-04-23 02:21 15.71766 74.88877 32970 ft 494 kts 126°
2026-04-23 02:22 15.68521 74.95160 32951 ft 494 kts 126°
2026-04-23 02:22 15.65267 75.01450 32951 ft 494 kts 126°
2026-04-23 02:23 15.62011 75.07719 32935 ft 494 kts 126°
2026-04-23 02:23 15.58743 75.14006 32940 ft 495 kts 126°
2026-04-23 02:24 15.55478 75.20291 32942 ft 495 kts 126°
2026-04-23 02:24 15.52209 75.26577 32942 ft 495 kts 126°
2026-04-23 02:25 15.48936 75.32862 32939 ft 495 kts 126°
2026-04-23 02:25 15.45663 75.39142 32949 ft 495 kts 126°
2026-04-23 02:26 15.42393 75.45418 32937 ft 495 kts 126°
2026-04-23 02:26 15.39126 75.51688 32939 ft 494 kts 126°
2026-04-23 02:27 15.35855 75.57943 32942 ft 494 kts 126°
2026-04-23 02:27 15.32572 75.64209 32955 ft 494 kts 126°
2026-04-23 02:28 15.29304 75.70456 32936 ft 494 kts 126°
2026-04-23 02:28 15.26036 75.76706 32935 ft 493 kts 126°
2026-04-23 02:29 15.22782 75.82915 32928 ft 493 kts 126°
2026-04-23 02:29 15.19501 75.89156 32944 ft 494 kts 126°
2026-04-23 02:30 15.16229 75.95400 32949 ft 493 kts 126°
2026-04-23 02:30 15.12963 76.01633 32951 ft 493 kts 126°
2026-04-23 02:31 15.09797 76.07932 32948 ft 494 kts 124°
2026-04-23 02:31 15.06701 76.14276 32951 ft 494 kts 124°
2026-04-23 02:32 15.03594 76.20604 32941 ft 492 kts 125°
2026-04-23 02:32 15.00464 76.26887 32953 ft 491 kts 125°
2026-04-23 02:33 14.97325 76.33153 32954 ft 490 kts 125°
2026-04-23 02:33 14.94188 76.39422 32957 ft 490 kts 125°
2026-04-23 02:34 14.91065 76.45686 32956 ft 490 kts 125°
2026-04-23 02:34 14.87945 76.51944 32942 ft 489 kts 125°
2026-04-23 02:35 14.84834 76.58161 32946 ft 490 kts 125°
2026-04-23 02:35 14.81698 76.64422 32949 ft 490 kts 125°
2026-04-23 02:36 14.78557 76.70684 32949 ft 490 kts 125°
2026-04-23 02:36 14.75426 76.76938 32950 ft 490 kts 125°
2026-04-23 02:37 14.72291 76.83202 32939 ft 490 kts 125°
2026-04-23 02:37 14.69151 76.89441 32933 ft 490 kts 125°
2026-04-23 02:38 14.66000 76.95695 32925 ft 490 kts 125°
2026-04-23 02:38 14.62858 77.01952 32928 ft 491 kts 124°
2026-04-23 02:39 14.59708 77.08213 32931 ft 491 kts 125°
2026-04-23 02:39 14.56668 77.14545 32933 ft 494 kts 122°
2026-04-23 02:40 14.54303 77.19924 32939 ft 495 kts 121°
2026-04-23 02:40 14.51490 77.26413 32938 ft 495 kts 121°
2026-04-23 02:41 14.48619 77.32857 32942 ft 494 kts 122°
2026-04-23 02:41 14.45708 77.39273 32940 ft 493 kts 122°
2026-04-23 02:42 14.42802 77.45677 32949 ft 493 kts 122°
2026-04-23 02:42 14.39905 77.52093 32949 ft 493 kts 122°
2026-04-23 02:43 14.37015 77.58512 32952 ft 493 kts 121°
2026-04-23 02:43 14.34115 77.64928 32937 ft 494 kts 122°
2026-04-23 02:44 14.31213 77.71347 32950 ft 494 kts 121°
2026-04-23 02:44 14.28309 77.77764 32955 ft 494 kts 121°
2026-04-23 02:45 14.25397 77.84197 32947 ft 495 kts 121°
2026-04-23 02:45 14.22484 77.90628 32950 ft 494 kts 121°
2026-04-23 02:46 14.19586 77.97001 32952 ft 494 kts 121°
2026-04-23 02:46 14.16668 78.03419 32964 ft 494 kts 121°
2026-04-23 02:47 14.13751 78.09833 32963 ft 494 kts 121°
2026-04-23 02:47 14.10844 78.16244 32947 ft 494 kts 121°
2026-04-23 02:48 14.07930 78.22647 32935 ft 494 kts 121°
2026-04-23 02:48 14.05005 78.29039 32947 ft 494 kts 122°
2026-04-23 02:49 14.02073 78.35444 32950 ft 494 kts 121°
2026-04-23 02:49 13.99160 78.41839 32944 ft 494 kts 121°
2026-04-23 02:50 13.96242 78.48240 32928 ft 493 kts 121°
2026-04-23 02:50 13.93318 78.54629 32941 ft 493 kts 121°
2026-04-23 02:51 13.90409 78.60964 32946 ft 493 kts 121°
2026-04-23 02:51 13.87485 78.67352 32944 ft 492 kts 121°
2026-04-23 02:52 13.84563 78.73734 32935 ft 492 kts 121°
2026-04-23 02:52 13.81644 78.80111 32938 ft 492 kts 121°
2026-04-23 02:52 13.80206 78.83255 32910 ft 479 kts 121°
2026-04-23 02:53 13.78801 78.86335 32927 ft 473 kts 122°
2026-04-23 02:53 13.75995 78.92435 32915 ft 471 kts 122°
2026-04-23 02:54 13.73200 78.98471 32916 ft 471 kts 122°
2026-04-23 02:54 13.71791 79.01523 32704 ft 471 kts 122°
2026-04-23 02:54 13.70385 79.04577 32457 ft 471 kts 122°
2026-04-23 02:54 13.68982 79.07630 32202 ft 473 kts 121°
2026-04-23 02:55 13.67577 79.10689 31966 ft 475 kts 121°
2026-04-23 02:55 13.66163 79.13763 31704 ft 476 kts 121°
2026-04-23 02:55 13.64742 79.16843 30881 ft 481 kts 121°
2026-04-23 02:55 13.63293 79.19976 29892 ft 489 kts 121°
2026-04-23 02:56 13.61822 79.23156 28779 ft 495 kts 120°
2026-04-23 02:56 13.60345 79.26356 28054 ft 493 kts 120°
2026-04-23 02:56 13.58888 79.29522 27448 ft 488 kts 120°
2026-04-23 02:56 13.57440 79.32668 26787 ft 485 kts 119°
2026-04-23 02:57 13.56001 79.35787 26321 ft 482 kts 119°
2026-04-23 02:57 13.54570 79.38884 25514 ft 478 kts 119°
2026-04-23 02:57 13.53151 79.41955 24889 ft 474 kts 118°
2026-04-23 02:57 13.51741 79.45003 24254 ft 470 kts 118°
2026-04-23 02:58 13.50337 79.48027 23632 ft 467 kts 118°
2026-04-23 02:58 13.48943 79.51025 22947 ft 464 kts 117°
2026-04-23 02:58 13.47565 79.53991 22565 ft 453 kts 117°
2026-04-23 02:58 13.46233 79.56865 22430 ft 437 kts 117°
2026-04-23 02:59 13.44952 79.59637 22299 ft 423 kts 117°
2026-04-23 02:59 13.43709 79.62326 22169 ft 410 kts 117°
2026-04-23 02:59 13.42345 79.64848 22047 ft 396 kts 128°
2026-04-23 02:59 13.40606 79.66963 21921 ft 381 kts 135°
2026-04-23 03:00 13.38815 79.68920 21776 ft 368 kts 135°
2026-04-23 03:00 13.37086 79.70815 21101 ft 359 kts 135°
2026-04-23 03:00 13.35403 79.72664 20292 ft 353 kts 135°
2026-04-23 03:00 13.33728 79.74501 19547 ft 347 kts 134°
2026-04-23 03:01 13.32103 79.76284 19100 ft 346 kts 134°
2026-04-23 03:01 13.30461 79.78088 18659 ft 347 kts 134°
2026-04-23 03:01 13.28813 79.79896 18295 ft 344 kts 133°
2026-04-23 03:01 13.27166 79.81697 17793 ft 345 kts 133°
2026-04-23 03:02 13.25537 79.83480 17409 ft 342 kts 132°
2026-04-23 03:02 13.23923 79.85249 17003 ft 339 kts 131°
2026-04-23 03:02 13.22309 79.87019 16614 ft 336 kts 132°
2026-04-23 03:02 13.20718 79.88761 16211 ft 335 kts 131°
2026-04-23 03:03 13.19128 79.90502 15794 ft 331 kts 131°
2026-04-23 03:03 13.17558 79.92220 15103 ft 325 kts 131°
2026-04-23 03:03 13.16023 79.93900 14670 ft 323 kts 130°
2026-04-23 03:03 13.14486 79.95585 14258 ft 324 kts 130°
2026-04-23 03:04 13.12951 79.97268 13922 ft 321 kts 130°
2026-04-23 03:04 13.11422 79.98946 13513 ft 321 kts 130°
2026-04-23 03:04 13.09908 80.00604 13106 ft 314 kts 130°
2026-04-23 03:04 13.08435 80.02217 12565 ft 305 kts 128°
2026-04-23 03:05 13.07232 80.04003 12166 ft 303 kts 111°
2026-04-23 03:05 13.06631 80.06038 11781 ft 297 kts 94°
2026-04-23 03:05 13.06650 80.08118 11399 ft 292 kts 78°
2026-04-23 03:05 13.07229 80.10102 11023 ft 289 kts 68°
2026-04-23 03:06 13.07946 80.12032 10654 ft 288 kts 68°
2026-04-23 03:06 13.08650 80.13948 10289 ft 287 kts 69°
2026-04-23 03:06 13.09348 80.15856 10004 ft 283 kts 69°
2026-04-23 03:06 13.10044 80.17761 9613 ft 283 kts 69°
2026-04-23 03:07 13.10728 80.19626 9172 ft 284 kts 69°
2026-04-23 03:07 13.11421 80.21513 8787 ft 283 kts 69°
2026-04-23 03:07 13.12124 80.23429 8368 ft 283 kts 69°
2026-04-23 03:07 13.12811 80.25310 7988 ft 279 kts 69°
2026-04-23 03:08 13.13469 80.27102 7625 ft 264 kts 69°
2026-04-23 03:08 13.14118 80.28806 7254 ft 250 kts 69°
2026-04-23 03:08 13.14751 80.30433 6913 ft 244 kts 69°
2026-04-23 03:08 13.15379 80.32037 6575 ft 241 kts 69°
2026-04-23 03:09 13.15972 80.33645 6202 ft 239 kts 76°
2026-04-23 03:09 13.15935 80.35309 5847 ft 235 kts 108°
2026-04-23 03:09 13.15024 80.36681 5503 ft 235 kts 139°
2026-04-23 03:09 13.13528 80.37324 5147 ft 237 kts 170°
2026-04-23 03:10 13.11906 80.37476 4798 ft 236 kts 173°
2026-04-23 03:10 13.10274 80.37618 4424 ft 234 kts 174°
2026-04-23 03:10 13.08673 80.37469 3879 ft 243 kts 195°
2026-04-23 03:10 13.07148 80.36678 3599 ft 238 kts 216°
2026-04-23 03:11 13.06054 80.35438 3335 ft 233 kts 236°
2026-04-23 03:11 13.05400 80.33937 3063 ft 228 kts 246°
2026-04-23 03:11 13.04837 80.32426 2773 ft 223 kts 246°
2026-04-23 03:11 13.04309 80.31010 2518 ft 203 kts 246°
2026-04-23 03:12 13.03820 80.29702 2257 ft 188 kts 245°
2026-04-23 03:12 13.03377 80.28519 2029 ft 170 kts 245°
2026-04-23 03:12 13.02969 80.27431 1838 ft 158 kts 245°
2026-04-23 03:12 13.02585 80.26407 1630 ft 150 kts 246°
2026-04-23 03:13 13.02211 80.25412 1428 ft 147 kts 246°
2026-04-23 03:13 13.01844 80.24436 1242 ft 147 kts 246°
2026-04-23 03:13 13.01478 80.23460 1057 ft 147 kts 246°
2026-04-23 03:13 13.01108 80.22474 886 ft 147 kts 246°
2026-04-23 03:14 13.00746 80.21508 714 ft 143 kts 246°
2026-04-23 03:14 13.00384 80.20543 551 ft 145 kts 248°
2026-04-23 03:14 13.00021 80.19583 318 ft 144 kts 248°
2026-04-23 03:14 12.99663 80.18628 142 ft 142 kts 249°
2026-04-23 03:15 12.99327 80.17713 57 ft 125 kts 249°
2026-04-23 03:15 12.99059 80.17011 51 ft 82 kts 249°
2026-04-23 03:15 12.98913 80.16624 50 ft 43 kts 249°
2026-04-23 03:15 12.98810 80.16425 53 ft 28 kts 227°
2026-04-23 03:16 12.98688 80.16316 48 ft 17 kts 218°
2026-04-23 03:16 12.98598 80.16244 55 ft 10 kts 216°
2026-04-23 03:16 12.98508 80.16134 55 ft 11 kts 188°
2026-04-23 03:17 12.98434 80.16156 55 ft 12 kts 159°
2026-04-23 03:17 12.98389 80.16206 53 ft 10 kts 88°
2026-04-23 03:17 12.98409 80.16273 53 ft 6 kts 85°
2026-04-23 03:17 12.98377 80.16300 55 ft 7 kts 157°
2026-04-23 03:18 12.98348 80.16312 52 ft 2 kts 158°
2026-04-23 03:18 12.98345 80.16313 52 ft 0 kts 158°